Regional Weather Roundup
Issued by NWS Goodland, KS

Home | Current Version | Previous Version | Text Only | Print | Product List | Glossary Off
Versions: 1 2 3 4 5 6 7 8 9 10 11 12 13 14 15 16 17 18 19 20 21 22 23 24 25 26 27 28 29 30 31 32 33 34 35 36 37 38 39 40 41 42 43 44 45 46 47 48 49 50

000
ASUS43 KGLD 130159
RWRGLD

GOODLAND FORECAST AREA HOURLY WEATHER ROUNDUP
NATIONAL WEATHER SERVICE GOODLAND KS
800 PM MDT SAT JUL 12 2014

...OFFICIAL OBSERVATIONS...

CITY           SKY/WX    TMP DP  RH WIND       PRES   REMARKS
GOODLAND KS    PTCLDY    78  63  59 NE9       30.15R
HILL CITY KS   CLEAR     79  67  66 NE9       30.04R
IMPERIAL NEB   MOCLDY    77  65  66 N7        30.14R
MCCOOK NEB     PTCLDY    77  67  71 NE9       30.08R
AKRON CO       CLOUDY    75  60  59 N8        30.24R
BURLINGTON CO  MOCLDY    77  62  59 NE8       30.18R
LIMON CO       LGT RAIN  68  64  87 NW14      30.29R
$$

...UNOFFICIAL OBSERVATIONS...

CITY           SKY/WX    TMP DP  RH WIND       PRES   REMARKS
COLBY KS       CLEAR     79  70  73 NE12      30.12R
GOVE KS          N/A     84  32  15 CALM        N/A
NORTON KS      CLEAR     79  63  57 N9        30.05R
WAKEENEY KS      N/A     81  66  59 MISG        N/A
KIT CARSON CO    N/A     80  62  53 N14         N/A
YUMA CO          N/A     76  64  67 NE5         N/A
$$



USA.gov is the U.S. government's official web portal to all federal, state and local government web resources and services.